Погода в Раджкоте

Индия     22°17′09″N   70°47′51″E
темп.,
°C
ветер,
м/с
пор.,
м/с
влажн.,
%
обл.,
%
осадки,
мм/ч
давл.,
гПа
погр.,
м
18 августа, чт
чт1823:30+25ююз61193100 0.1 1004580
02:30+24ююз6119499 0.0 1001523
05:30+25ююз6119496 0.1 1002534
08:30+26юз8128879 0.1 1004728
11:30+28юз9117684 0.9 10041046
14:30+29юз9117374 1.7 10021173
17:30+28юз7107792 3.8 1002977
20:30+26юз61087100 0.6 1003579
19 августа, пт
пт1923:30+25ююз61091100 0.6 1004519
02:30+25юз5993100 0.0 1003480
05:30+25юз4894100 0.0 1003434
08:30+26юз578745 0.0 1005533
11:30+30зюз667176 0.6 10041114
14:30+32зюз776050 0.3 10031547
17:30+30юз676596 0.3 10031236
20:30+27юз69807 0.0 1005492
20 августа, сб
сб2023:30+27юз6979100 0.1 1005583
02:30+26юз5982100 0.1 1004520
05:30+26юз4884100 0.1 1004390
08:30+26юз5881100 0.1 1006454
11:30+27юз5777100 0.2 1006627
14:30+30юз676737 0.1 10041166
17:30+30юз776932 0.4 10031075
20:30+27юз61080100 0.1 1004492
21 августа, вс
вс2123:30+26юз51083100 0.1 1004443
02:30+26юз51082100 0.1 1003435
05:30+26зюз51083100 0.1 1003482
08:30+26зюз5982100 0.1 1005507
11:30+27зюз5777100 0.2 1004613
14:30+31зюз676362 0.3 10011361
17:30+30з676696 0.4 10011064
20:30+27зюз61078100 0.2 1003435
22 августа, пн
пн2223:30+26зюз5982100 0.3 1003365
02:30+26зюз51081100 0.0 1002436
05:30+26зюз51081100 0.1 1002427
08:30+26зюз51081100 0.1 1003594
11:30+27з6977100 0.1 1004736
14:30+30з5868100 0.1 10011187
17:30+29з5871100 0.3 1001628
20:30+27зюз598093 0.1 1002459